Location: Lubbock
(33.5779°N, 101.8552°W)
Time: 14:15:45
(UTC-05:00)

Hubble Space Telescope - Visible Passes

Search period start: 21 September 2020 00:00
Search period end: 01 October 2020 00:00
Orbit: 536 x 540 km, 28.5° (Epoch: 21 September)

Date Brightness Start Highest point End Pass type
(mag) Time Alt. Az. Time Alt. Az. Time Alt. Az.
22 Sep 3.6 06:34:09 10° SSE 06:34:29 10° SSE 06:34:49 10° SSE visible
23 Sep 3.3 06:21:46 10° S 06:23:39 13° SSE 06:25:32 10° SE visible
24 Sep 3.0 06:11:03 13° S 06:12:49 16° SSE 06:15:20 10° ESE visible
25 Sep 2.7 06:01:06 18° S 06:02:00 19° SSE 06:04:57 10° ESE visible
26 Sep 2.5 05:51:07 22° SSE 05:51:12 22° SSE 05:54:26 10° ESE visible
27 Sep 2.5 05:41:06 24° SSE 05:41:06 24° SSE 05:43:51 10° ESE visible
28 Sep 2.7 05:31:03 23° SE 05:31:03 23° SE 05:33:13 10° ESE visible
28 Sep 1.6 07:06:35 10° WSW 07:10:28 40° S 07:14:21 10° ESE visible
29 Sep 3.0 05:20:59 20° ESE 05:20:59 20° ESE 05:22:33 10° ESE visible
29 Sep 1.6 06:56:19 13° WSW 06:59:42 40° S 07:03:34 10° ESE visible
30 Sep 3.4 05:10:56 15° ESE 05:10:56 15° ESE 05:11:50 10° ESE visible
30 Sep 1.6 06:46:16 17° WSW 06:48:57 38° S 06:52:47 10° ESE visible
